Weather History for Waskish, MN

Change the Weather History Date:

Wednesday, February 13, 2013

  Actual Average (KBDE) Record (KBDE)
Temperature  
Mean Temperature 18 °F -  
Max Temperature 30 °F 22 °F 49 °F (1983)
Min Temperature 6 °F -5 °F -34 °F (1951)
Degree Days  
Heating Degree Days 47    
Moisture  
Dew Point 18 °F    
Average Humidity 90    
Maximum Humidity 100    
Minimum Humidity 80    
Precipitation  
Precipitation 0.00 in - - ()
Sea Level Pressure  
Sea Level Pressure 29.63 in    
Wind  
Wind Speed 5 mph (WSW)    
Max Wind Speed 12 mph    
Max Gust Speed -    
Visibility 8 miles    
Events Fog , Snow    
Averages and records for this station are not official NWS values.
T = Trace of Precipitation, MM = Missing Value Source: NWS Daily Summary

Daily Weather History Graph

Daily Weather History Graph

Search for Another Location

Airport:

Trip Planner

Search our weather history database for the weather conditions in past years. The results will help you decide how hot, cold, wet, or windy it might be!

Date:

Astronomy

Feb. 13, 2013 Rise Set
Actual Time 7:27 AM CST 5:37 PM CST
Civil Twilight 6:55 AM CST 6:09 PM CST
Nautical Twilight 6:18 AM CST 6:46 PM CST
Astronomical Twilight 5:42 AM CST 7:22 PM CST
Moon 8:36 AM CST (2/13) 10:05 PM CST (2/13)
Length of Visible Light 11h 14m
Length of Day
10h 09m
Waxing Crescent, 14% of the Moon is Illuminated
Feb 13
Waxing Crescent
Feb 17
First Quarter
Feb 25
Full
Mar 4
Last Quarter
Mar 11
New

Hourly Weather History & Observations

Time (CST) Temp. Windchill Dew Point Humidity Pressure Visibility Wind Dir Wind Speed Gust Speed Precip Events Conditions
12:13 AM 24.8 °F 16.9 °F 21.2 °F 86% 29.65 in 10.0 mi SW 6.9 mph - N/A   Clear
12:33 AM 24.8 °F 16.1 °F 21.2 °F 86% 29.65 in 10.0 mi SW 8.1 mph - N/A   Clear
12:52 AM 23.0 °F 13.9 °F 21.2 °F 93% 29.65 in 10.0 mi SW 8.1 mph - N/A   Scattered Clouds
1:13 AM 23.0 °F 12.4 °F 21.2 °F 93% 29.65 in 10.0 mi SW 10.4 mph - N/A   Scattered Clouds
1:33 AM 23.0 °F 12.4 °F 21.2 °F 93% 29.65 in 10.0 mi SW 10.4 mph - N/A   Scattered Clouds
2:13 AM 24.8 °F 14.6 °F 21.2 °F 86% 29.64 in 10.0 mi SW 10.4 mph - N/A   Mostly Cloudy
2:33 AM 21.2 °F 10.1 °F 19.4 °F 93% 29.64 in 10.0 mi SW 10.4 mph - N/A   Mostly Cloudy
2:52 AM 19.4 °F 7.2 °F 17.6 °F 93% 29.64 in 10.0 mi SW 11.5 mph - N/A   Scattered Clouds
3:13 AM 19.4 °F 7.9 °F 17.6 °F 93% 29.64 in 10.0 mi SW 10.4 mph - N/A   Clear
3:33 AM 19.4 °F 7.9 °F 17.6 °F 93% 29.64 in 10.0 mi SW 10.4 mph - N/A   Clear
3:52 AM 19.4 °F 8.6 °F 17.6 °F 93% 29.63 in 10.0 mi SW 9.2 mph - N/A   Clear
4:13 AM 19.4 °F 7.9 °F 17.6 °F 93% 29.63 in 10.0 mi SW 10.4 mph - N/A   Clear
4:33 AM 19.4 °F 7.9 °F 19.4 °F 100% 29.63 in 10.0 mi SW 10.4 mph - N/A   Clear
4:52 AM 21.2 °F 9.5 °F 19.4 °F 93% 29.63 in 10.0 mi SW 11.5 mph - N/A   Clear
5:13 AM 21.2 °F 9.5 °F 19.4 °F 93% 29.62 in 10.0 mi SW 11.5 mph - N/A   Clear
5:33 AM 19.4 °F 7.9 °F 19.4 °F 100% 29.62 in 10.0 mi SW 10.4 mph - N/A   Clear
5:52 AM 19.4 °F 9.5 °F 17.6 °F 93% 29.62 in 10.0 mi SW 8.1 mph - N/A   Clear
6:13 AM 14.0 °F 6.5 °F 10.4 °F 86% 29.62 in 10.0 mi WSW 4.6 mph - N/A   Clear
6:33 AM 8.6 °F - 6.8 °F 92% 29.62 in 7.0 mi Calm Calm - N/A   Clear
6:52 AM 8.6 °F - 6.8 °F 92% 29.62 in 7.0 mi Calm Calm - N/A   Clear
7:13 AM 6.8 °F -2.0 °F 3.2 °F 85% 29.62 in 10.0 mi SW 4.6 mph - N/A   Clear
7:33 AM 6.8 °F - 3.2 °F 85% 29.62 in 10.0 mi Calm Calm - N/A   Clear
7:52 AM 6.8 °F - 3.2 °F 85% 29.62 in 1.8 mi Calm Calm - N/A   Mostly Cloudy
8:13 AM 8.6 °F - 6.8 °F 92% 29.62 in 1.2 mi Calm Calm - N/A   Overcast
8:33 AM 10.4 °F - 8.6 °F 92% 29.62 in 0.2 mi Calm Calm - N/A Fog Light Freezing Fog
8:52 AM 10.4 °F - 8.6 °F 92% 29.62 in 0.2 mi Calm Calm - N/A Fog Light Freezing Fog
9:13 AM 12.2 °F - 10.4 °F 92% 29.62 in 0.2 mi Calm Calm - N/A Fog Light Freezing Fog
9:33 AM 14.0 °F - 12.2 °F 93% 29.62 in 0.2 mi Calm Calm - N/A Fog Light Freezing Fog
9:52 AM 15.8 °F - 14.0 °F 93% 29.62 in 0.8 mi Calm Calm - N/A   Overcast
10:13 AM 17.6 °F - 15.8 °F 93% 29.63 in 0.2 mi Calm Calm - N/A Fog Light Freezing Fog
10:32 AM 19.4 °F - 17.6 °F 93% 29.63 in 0.2 mi Calm Calm - N/A Fog Light Freezing Fog
10:53 AM 21.2 °F 16.4 °F 19.4 °F 93% 29.63 in 0.2 mi WSW 3.5 mph - N/A Fog Light Freezing Fog
11:13 AM 21.2 °F - 17.6 °F 86% 29.63 in 0.2 mi Calm Calm - N/A Fog Light Freezing Fog
11:32 AM 21.2 °F - 17.6 °F 86% 29.63 in 0.2 mi Calm Calm - N/A Fog Light Freezing Fog
11:52 AM 23.0 °F - 19.4 °F 86% 29.62 in 0.8 mi Calm Calm - N/A   Overcast
12:13 PM 24.8 °F - 21.2 °F 86% 29.61 in 3.0 mi Calm Calm - N/A   Mostly Cloudy
12:32 PM 26.6 °F - 21.2 °F 80% 29.60 in 10.0 mi Calm Calm - N/A   Overcast
12:53 PM 24.8 °F - 21.2 °F 86% 29.60 in 10.0 mi Calm Calm - N/A   Mostly Cloudy
1:13 PM 26.6 °F - 24.8 °F 93% 29.60 in 10.0 mi Calm Calm - N/A   Scattered Clouds
1:32 PM 28.4 °F - 24.8 °F 86% 29.59 in 10.0 mi Calm Calm - N/A   Scattered Clouds
1:53 PM 30.2 °F 26.7 °F 24.8 °F 80% 29.59 in 10.0 mi WNW 3.5 mph - N/A   Mostly Cloudy
2:13 PM 28.4 °F - 23.0 °F 80% 29.58 in 10.0 mi Calm Calm - N/A   Scattered Clouds
2:32 PM 28.4 °F - 23.0 °F 80% 29.58 in 10.0 mi Calm Calm - N/A   Clear
2:53 PM 28.4 °F - 23.0 °F 80% 29.58 in 10.0 mi Calm Calm - N/A   Mostly Cloudy
3:13 PM 28.4 °F - 24.8 °F 86% 29.59 in 10.0 mi Calm Calm - N/A   Overcast
3:32 PM 28.4 °F - 23.0 °F 80% 29.59 in 10.0 mi Calm Calm - N/A   Mostly Cloudy
3:53 PM 26.6 °F 22.6 °F 21.2 °F 80% 29.60 in 10.0 mi West 3.5 mph - N/A   Scattered Clouds
4:13 PM 24.8 °F - 21.2 °F 86% 29.60 in 10.0 mi Calm Calm - N/A   Overcast
4:32 PM 24.8 °F - 19.4 °F 80% 29.60 in 10.0 mi Calm Calm - N/A   Overcast
4:53 PM 23.0 °F - 19.4 °F 86% 29.60 in 10.0 mi Calm Calm - N/A   Overcast
5:13 PM 24.8 °F - 21.2 °F 86% 29.61 in 10.0 mi Calm Calm - N/A   Overcast
5:32 PM 23.0 °F - 21.2 °F 93% 29.61 in 10.0 mi Calm Calm - N/A   Overcast
5:53 PM 21.2 °F - 19.4 °F 93% 29.62 in 10.0 mi Calm Calm - N/A   Overcast
6:13 PM 21.2 °F - 19.4 °F 93% 29.62 in 10.0 mi Calm Calm - N/A   Overcast
6:32 PM 21.2 °F 14.9 °F 19.4 °F 93% 29.63 in 10.0 mi WSW 4.6 mph - N/A   Overcast
6:53 PM 21.2 °F - 19.4 °F 93% 29.64 in 10.0 mi Calm Calm - N/A   Overcast
7:13 PM 21.2 °F - 19.4 °F 93% 29.64 in 10.0 mi Calm Calm - N/A   Overcast
7:32 PM 21.2 °F - 19.4 °F 93% 29.65 in 10.0 mi Calm Calm - N/A   Overcast
7:53 PM 21.2 °F - 21.2 °F 100% 29.65 in 7.0 mi Calm Calm - N/A Snow Light Snow
8:13 PM 23.0 °F - 21.2 °F 93% 29.65 in 10.0 mi Calm Calm - N/A   Overcast
8:32 PM 23.0 °F - 21.2 °F 93% 29.65 in 10.0 mi Calm Calm - N/A   Overcast
8:53 PM 21.2 °F - 19.4 °F 93% 29.66 in 10.0 mi Calm Calm - N/A   Overcast
9:13 PM 21.2 °F - 19.4 °F 93% 29.66 in 10.0 mi Calm Calm - N/A   Overcast
9:32 PM 19.4 °F - 17.6 °F 93% 29.66 in 10.0 mi Calm Calm - N/A   Mostly Cloudy
9:53 PM 17.6 °F - 15.8 °F 93% 29.67 in 10.0 mi Calm Calm - N/A   Clear
10:13 PM 17.6 °F 10.7 °F 15.8 °F 93% 29.67 in 7.0 mi NW 4.6 mph - N/A   Clear
10:32 PM 19.4 °F 14.3 °F 17.6 °F 93% 29.67 in 10.0 mi NW 3.5 mph - N/A   Clear
10:53 PM 19.4 °F 14.3 °F 17.6 °F 93% 29.68 in 10.0 mi NW 3.5 mph - N/A   Clear
11:12 PM 19.4 °F 11.5 °F 17.6 °F 93% 29.68 in 10.0 mi NNW 5.8 mph - N/A   Clear
11:49 PM 19.4 °F 11.5 °F 15.8 °F 86% 29.69 in 10.0 mi NNW 5.8 mph - N/A   Clear